Probability
0 0 0 0 0 0 0 0 0 0 0 0 0 0 0 0 0 0 0 0 0 0 0 0 0 0 0 0 0 0 0 0 0 0 0 0 0 0 0 0 0 0 0 0
0 0 0 0 0 0 0 0 0 0 0 0 0 0 0 0 0 0 0 0 0 0 0 0 0 0 0 0 0 0 0 0 0 0 0 0 0 0 0 0 0 0 0 0
0 0 0 0 0 0 0 0 0 0 0 0 0 0 0 0 0 0 0 0 0 0 0 0 0 0 0 0 0 0 0 0 0 0 0 0 0 0 0 0 0 0 0 0
0 0 0 0 0 0 0 0 0 0 0 0 0 0 0 0 0 0 0 0 0 0 0 0 0 0 0 0 0 0 0 0 0 0 0 0 0 0 0 0 0 0 0 0
0 0 0 0 0 0 0 0 0 0 0 0 0 0 0 0 0 0 0 0 0 0 0 0 0 0 0 0 0 0 0 0 0 0 0 0 0 0 0 0 0 0 0 0
0 0 0 0 0 0 0 0 0 0 0 0 0 0 0 0 0 0 0 0 0 0 0 0 0 0 0 0 0 0 0 0 0 0 0 0 0 0 0 0 0 0 0 0
0 0 0 0 0 0 0 0 0 0 0 0 0 0 0 0 0 0 0 0 0 0 0 0 0 0 0 0 0 0 0 0 0 0 0 0 0 0 0 0 0 0 0 0
0 0 0 0 0 0 0 0 0 0 0 0 0 0 0 0 0 0 0 0 0 0 0 0 0 0 0 0 0 0 0 0 0 0 0 0 0 0 0 0 0 0 0 0
0 0 0 0 0 0 0 0 0 0 0 0 0 0 0 0 0 0 0 0 0 0 0 0 0 0 0 0 0 0 0 0 0 0 0 0 0 0 0 0 0 0 0 0
0 0 0 0 0 0 0 0 0 0 0 0 0 0 0 0 0 0 0 0 0 0 0 0 0 0 0 0 0 0 0 0 0 0 0 0 0 0 0 0 0 0 0 0
0 0 0 0 0 0 0 0 0 0 0 0 0 0 0 0 0 0 0 0 0 0 0 0 0 0 0 0 0 0 0 0 0 0 0 0 0 0 0 0 0 0 0 0
0 0 0 0 0 0 0 0 0 0 0 0 0 0 0 0 0 0 0 0 0 0 0 0 0 0 0 0 0 0 0 0 0 0 0 0 0 0 0 0 0 0 0 0
0 0 0 0 0 0 0 0 0 0 0 0 0 0 0 0 0 0 0 0 0 0 0 0 0 0 0 0 0 0 0 0 0 0 0 0 0 0 0 0 0 0 0 0
0 0 0 0 0 0 0 0 0 0 0 0 0 0 0 0 0 0 0 0 0 0 0 0 0 0 0 0 0 0 0 0 0 0 0 0 0 0 0 0 0 0 0 0
0 0 0 0 0 0 0 0 0 0 0 0 0 0 0 0 0 0 0 0 0 0 0 0 0 0 0 0 0 0 0 0 0 0 0 0 0 0 0 0 0 0 0 0
0 0 0 0 0 0 0 0 0 0 0 0 0 0 0 0 0 0 0 0 0 0 0 0 0 0 0 0 0 0 0 0 0 0 0 0 0 0 0 0 0 0 0 0
0 0 0 0 0 0 0 0 0 0 0 0 0 0 0 0 0 0 0 0 0 0 0 0 0 0 0 0 0 0 0 0 0 0 0 0 0 0 0 0 0 0 0 0
0 0 0 0 0 0 0 0 0 0 0 0 0 0 0 0 0 0 0 0 0 0 0 0 0 0 0 0 0 0 0 0 0 0 0 0 0 0 0 0 0 0 0 0
0 0 0 0 0 0 0 0 0 0 0 0 0 0 0 0 0 0 0 0 0 0 0 0 0 0 0 0 0 0 0 0 0 0 0 0 0 0 0 0 0 0 0 0
0 0 0 0 0 0 0 0 0 0 0 0 0 0 0 0 0 0 0 0 0 0 0 0 0 0 0 0 0 0 0 0 0 0 0 0 0 0 0 0 0 0 0 0
0 0 0 0 0 0 0 0 0 0 0 0 0 0 0 0 0 0 0 0 0 0 0 0 0 0 0 0 0 0 0 0 0 0 0 0 0 0 0 0 0 0 0 0
0 0 0 0 0 0 0 0 0 0 0 0 0 0 0 0 0 0 0 0 0 0 0 0 0 0 0 0 0 0 0 0 0 0 0 0 0 0 0 0 0 0 0 0
0 0 0 0 0 0 0 0 0 0 0 0 0 0 0 0 0 0 0 0 0 0 0 0 0 0 0 0 0 0 0 0 0 0 0 0 0 0 0 0 0 0 0 0
0 0 0 0 0 0 0 0 0 0 0 0 0 0 0 0 0 0 0 0 0 0 0 0 0 0 0 0 0 0 0 0 0 0 0 0 0 0 0 0 0 0 0 0
0 0 0 0 0 0 0 0 0 0 0 0 0 0 0 0 0 0 0 0 0 0 0 0 0 0 0 0 0 0 0 0 0 0 0 0 0 0 0 0 0 0 0 0
0 0 0 0 0 0 0 0 0 0 0 0 0 0 0 0 0 0 0 0 0 0 0 0 0 0 0 0 0 0 0 0 0 0 0 0 0 0 0 0 0 0 0 0
0 0 0 0 0 0 0 0 0 0 0 0 0 0 0 0 0 0 0 0 0 0 0 0 0 0 0 0 0 0 0 0 0 0 0 0 0 0 0 0 0 0 0 0
Height
5604 5603 5602 5601 5601 5600 5598 5597 5596 5596 5595 5595 5593 5591 5590 5589 5588 5587 5586 5585 5584 5583 5582 5582 5581 5581 5580 5579 5579 5579 5579 5579 5580 5580 5581 5581 5582 5582 5583 5583 5583 5583 5584 5584
5597 5596 5594 5593 5593 5592 5591 5589 5588 5587 5587 5587 5585 5583 5582 5581 5580 5579 5578 5577 5576 5574 5574 5573 5572 5571 5571 5570 5570 5569 5569 5569 5570 5570 5571 5571 5571 5572 5572 5572 5573 5573 5573 5573
5589 5588 5586 5586 5587 5585 5583 5582 5580 5579 5580 5578 5576 5575 5574 5573 5572 5571 5570 5569 5568 5566 5565 5564 5563 5563 5562 5561 5560 5560 5560 5560 5560 5560 5561 5561 5561 5562 5562 5562 5562 5563 5563 5563
5580 5580 5578 5581 5578 5577 5575 5574 5572 5571 5570 5569 5568 5567 5566 5565 5564 5563 5562 5561 5559 5558 5557 5556 5555 5554 5552 5552 5551 5551 5551 5550 5550 5551 5551 5551 5552 5552 5552 5553 5553 5553 5553 5553
5572 5570 5569 5572 5570 5568 5566 5566 5565 5563 5562 5561 5560 5559 5559 5558 5556 5555 5554 5553 5551 5550 5549 5548 5546 5545 5544 5543 5542 5542 5542 5542 5541 5541 5542 5542 5543 5543 5543 5543 5544 5544 5544 5543
5565 5562 5562 5564 5562 5559 5559 5557 5557 5555 5554 5553 5552 5552 5552 5550 5548 5547 5546 5544 5543 5542 5541 5539 5538 5537 5536 5535 5534 5534 5533 5533 5533 5533 5533 5533 5534 5534 5534 5534 5535 5535 5534 5534
5557 5554 5554 5556 5553 5552 5552 5551 5549 5546 5545 5544 5544 5543 5543 5541 5540 5539 5538 5536 5535 5533 5532 5531 5530 5529 5528 5527 5526 5526 5525 5525 5525 5525 5525 5525 5525 5526 5526 5526 5526 5526 5525 5525
5550 5548 5550 5547 5545 5545 5543 5541 5539 5538 5537 5536 5536 5535 5534 5533 5532 5531 5529 5528 5526 5525 5524 5523 5522 5521 5520 5519 5519 5518 5517 5517 5517 5517 5517 5517 5517 5517 5517 5517 5517 5517 5516 5516
5543 5544 5541 5539 5538 5536 5535 5533 5532 5530 5530 5529 5528 5527 5526 5525 5524 5522 5521 5520 5518 5517 5516 5515 5513 5512 5512 5511 5510 5510 5509 5509 5509 5509 5509 5509 5509 5509 5509 5509 5509 5508 5508 5507
5535 5535 5533 5531 5530 5528 5527 5525 5523 5522 5522 5521 5520 5519 5518 5517 5516 5514 5513 5512 5510 5509 5508 5507 5505 5504 5503 5503 5502 5501 5501 5501 5500 5500 5500 5501 5501 5501 5501 5501 5500 5500 5499 5499
5527 5527 5525 5523 5522 5521 5519 5517 5516 5515 5514 5513 5512 5511 5510 5509 5508 5506 5505 5504 5503 5501 5500 5499 5498 5496 5495 5495 5494 5493 5493 5493 5492 5492 5492 5493 5493 5493 5493 5492 5491 5491 5491 5490
5520 5519 5517 5516 5515 5513 5511 5510 5509 5508 5507 5506 5505 5504 5502 5501 5500 5498 5497 5496 5495 5494 5492 5491 5490 5489 5488 5487 5486 5485 5485 5485 5484 5484 5484 5485 5485 5485 5484 5484 5483 5482 5482 5481
5511 5510 5509 5508 5507 5505 5504 5502 5501 5500 5499 5498 5497 5495 5494 5493 5492 5490 5489 5488 5487 5486 5485 5484 5482 5481 5480 5479 5478 5477 5477 5477 5477 5477 5477 5477 5477 5477 5477 5476 5475 5474 5474 5473
5504 5503 5502 5500 5499 5498 5496 5495 5493 5492 5491 5490 5489 5487 5486 5485 5483 5482 5481 5480 5479 5478 5477 5476 5475 5474 5473 5471 5470 5469 5469 5469 5469 5469 5469 5469 5469 5469 5469 5468 5468 5467 5467 5466
5496 5495 5494 5493 5491 5490 5489 5487 5486 5485 5483 5482 5481 5479 5478 5477 5475 5474 5473 5472 5471 5471 5470 5469 5468 5467 5465 5464 5463 5462 5462 5462 5462 5462 5462 5462 5461 5461 5461 5461 5460 5460 5460 5459
5488 5487 5486 5485 5484 5483 5481 5480 5479 5478 5476 5475 5473 5472 5470 5469 5467 5466 5466 5465 5464 5464 5463 5462 5460 5459 5458 5457 5456 5456 5455 5455 5455 5455 5454 5454 5454 5453 5453 5453 5453 5453 5453 5452
5481 5480 5479 5478 5477 5476 5475 5473 5472 5471 5469 5468 5466 5465 5463 5462 5460 5459 5458 5457 5456 5456 5455 5455 5454 5452 5451 5451 5450 5449 5448 5448 5448 5447 5447 5447 5446 5446 5446 5445 5445 5445 5445 5445
5474 5473 5472 5471 5470 5469 5468 5467 5466 5464 5463 5462 5460 5458 5457 5455 5454 5453 5451 5450 5449 5448 5448 5447 5446 5445 5444 5444 5443 5442 5442 5442 5441 5441 5440 5440 5439 5439 5439 5438 5437 5437 5438 5438
5467 5466 5465 5464 5463 5463 5462 5461 5460 5458 5457 5455 5454 5452 5451 5449 5448 5446 5445 5444 5443 5442 5442 5441 5440 5439 5438 5437 5437 5436 5436 5435 5435 5435 5434 5433 5433 5433 5432 5431 5431 5431 5431 5431
5460 5460 5459 5458 5458 5457 5456 5455 5453 5452 5451 5449 5448 5446 5445 5443 5442 5441 5440 5439 5438 5437 5436 5435 5434 5433 5432 5432 5431 5431 5430 5430 5429 5429 5428 5428 5427 5427 5426 5426 5425 5425 5425 5426
5455 5454 5453 5452 5452 5451 5450 5449 5448 5446 5445 5443 5442 5440 5439 5438 5437 5435 5434 5434 5433 5431 5431 5430 5429 5428 5427 5426 5426 5425 5425 5424 5424 5423 5423 5422 5422 5421 5421 5420 5420 5420 5420 5420
5449 5448 5448 5447 5446 5445 5444 5443 5442 5440 5439 5437 5436 5435 5433 5432 5431 5430 5429 5428 5428 5426 5425 5424 5424 5423 5422 5421 5420 5420 5419 5419 5418 5418 5418 5417 5417 5416 5416 5416 5416 5415 5415 5416
5444 5443 5442 5441 5440 5439 5438 5437 5436 5434 5433 5431 5430 5429 5427 5426 5425 5424 5424 5423 5422 5421 5420 5419 5418 5418 5417 5416 5415 5414 5414 5414 5413 5413 5413 5412 5412 5412 5411 5411 5411 5411 5411 5411
5439 5438 5437 5436 5435 5434 5433 5431 5430 5428 5427 5425 5424 5423 5422 5421 5420 5419 5419 5418 5417 5416 5415 5414 5413 5413 5412 5411 5410 5409 5409 5409 5409 5408 5408 5408 5407 5407 5407 5406 5406 5406 5406 5406
5434 5433 5432 5431 5430 5429 5427 5426 5424 5423 5421 5420 5419 5418 5417 5416 5415 5414 5414 5413 5412 5411 5410 5409 5408 5407 5406 5405 5405 5404 5404 5404 5404 5403 5403 5403 5403 5403 5402 5402 5402 5401 5401 5401
5429 5428 5427 5426 5425 5424 5422 5421 5419 5418 5417 5416 5415 5413 5412 5411 5411 5410 5409 5408 5407 5406 5405 5404 5403 5402 5401 5400 5399 5399 5398 5398 5398 5398 5398 5398 5398 5398 5398 5397 5397 5397 5397 5397
5424 5424 5422 5421 5420 5419 5417 5416 5415 5414 5413 5412 5411 5410 5408 5407 5407 5406 5404 5403 5402 5401 5400 5399 5398 5397 5396 5395 5394 5393 5393 5393 5393 5393 5394 5394 5393 5393 5393 5393 5393 5392 5392 5393
Wind_Speed
30 30 30 30 29 30 30 30 31 30 31 30 31 30 30 30 30 30 30 30 31 31 31 31 32 33 33 33 33 34 35 35 35 36 37 38 38 39 39 40 40 40 40 40
29 30 31 31 30 30 30 30 32 32 31 30 30 30 30 29 29 29 28 28 29 30 30 31 32 32 32 32 32 32 33 34 34 35 36 36 37 37 38 38 38 39 39 39
31 31 31 31 30 31 30 31 32 31 30 30 31 30 29 29 28 28 28 29 29 29 30 31 31 31 31 32 32 32 32 33 34 34 35 35 35 36 36 36 36 37 37 37
32 32 32 31 30 31 31 31 31 30 29 30 30 29 28 27 27 27 28 29 29 29 29 30 30 31 30 30 31 31 32 33 33 34 34 34 34 34 34 34 34 34 35 35
32 32 32 30 30 30 31 30 30 30 30 30 30 29 28 28 28 28 28 29 29 29 29 29 30 29 29 29 30 30 31 31 32 33 34 34 34 34 33 33 33 33 33 34
31 32 31 30 30 30 30 30 29 29 29 29 29 29 27 28 29 29 29 29 29 29 29 29 29 29 29 29 29 30 30 30 30 31 31 31 31 31 32 32 32 32 32 33
30 31 31 30 30 30 30 29 29 28 28 28 27 28 28 28 29 30 30 29 29 29 29 29 29 29 29 28 28 28 29 28 28 28 29 29 29 29 30 30 31 31 31 31
29 29 29 29 29 29 29 29 29 28 28 28 28 28 29 29 29 29 29 29 29 29 28 28 29 29 28 28 28 28 27 27 27 28 28 28 28 28 29 30 30 30 30 31
29 28 28 28 28 29 29 28 28 28 27 28 28 28 28 29 29 28 28 28 28 28 28 28 28 29 28 28 28 28 28 28 28 28 27 27 27 28 29 30 30 30 30 30
29 28 28 28 28 28 27 27 27 26 26 26 26 27 27 28 28 28 27 27 27 27 27 27 27 27 27 27 27 27 27 28 28 27 27 27 27 28 28 29 29 29 30 30
28 27 28 28 28 27 27 27 27 27 27 27 26 26 27 27 27 27 27 27 26 25 26 26 26 26 26 26 26 26 26 27 27 27 26 27 27 27 27 28 28 28 28 28
27 27 28 27 27 27 27 27 27 27 28 27 27 27 28 28 27 27 27 26 26 25 25 25 25 25 25 25 25 25 25 25 25 26 26 26 26 26 26 26 26 27 26 26
27 27 28 27 26 26 27 27 27 27 27 27 27 28 28 28 27 27 26 26 26 25 25 24 24 24 24 24 24 24 24 24 24 25 25 26 26 26 27 26 26 25 25 25
28 28 28 27 27 27 27 26 27 27 27 27 27 27 27 27 27 26 26 26 25 24 24 23 23 23 24 23 23 24 23 23 23 24 24 25 25 25 25 25 25 25 24 24
27 27 27 27 27 26 25 25 25 25 26 26 26 26 26 26 26 25 25 24 24 24 23 23 23 23 22 22 22 23 23 23 23 24 24 25 25 25 25 24 24 24 24 24
26 26 25 25 25 24 24 24 24 23 24 24 24 24 24 24 24 24 23 23 23 23 23 22 22 22 22 22 22 22 23 23 23 23 23 24 24 24 24 24 24 24 24 24
25 24 24 24 23 23 22 22 22 22 21 21 22 22 22 22 22 22 22 22 22 22 23 22 22 22 22 22 21 21 22 22 22 22 22 22 22 22 22 23 23 23 23 22
24 24 23 22 22 21 20 20 21 21 21 21 22 22 21 21 20 21 20 20 20 21 21 22 22 21 21 21 20 20 20 20 21 21 21 20 20 20 20 20 21 20 20 20
23 22 22 21 21 20 20 21 21 21 21 21 21 21 20 19 19 19 19 18 18 19 19 19 19 20 20 19 18 18 19 19 19 19 19 19 19 19 19 19 18 18 18 18
21 20 20 20 20 20 20 20 20 20 21 21 21 20 19 19 18 18 18 18 18 18 18 19 19 18 18 17 17 17 18 18 18 18 18 18 18 17 17 17 16 16 16 16
19 19 19 19 19 19 19 19 19 19 20 20 20 19 19 19 19 19 19 19 18 19 19 19 18 18 18 18 18 17 17 17 18 17 17 16 16 16 15 15 15 15 14 14
18 18 18 18 18 18 19 19 20 20 20 20 20 19 20 19 19 19 18 18 18 19 18 18 18 18 18 18 18 18 17 17 16 16 16 16 15 15 15 14 14 14 14 14
17 17 18 17 17 18 18 19 20 20 20 19 19 19 18 18 18 17 17 17 17 18 17 17 17 17 17 18 17 17 16 16 15 15 15 15 15 14 14 13 13 13 14 14
17 17 17 17 17 18 18 19 19 19 19 18 17 17 17 17 16 17 16 17 17 17 17 17 17 16 17 17 17 17 16 16 15 15 14 14 13 13 13 13 14 14 14 14
16 16 17 17 17 18 18 18 18 17 16 15 15 15 15 15 15 15 15 16 16 17 17 17 17 17 17 17 17 16 16 15 15 15 14 13 13 13 13 13 13 13 13 13
16 16 17 17 17 17 17 16 15 15 14 14 14 14 14 14 14 15 15 15 16 17 17 17 17 17 17 17 17 16 16 15 15 14 14 13 13 13 13 12 12 12 12 12
17 17 16 16 16 15 15 14 14 13 13 13 13 13 13 13 13 14 15 15 16 17 17 17 17 17 17 17 16 16 15 14 13 13 13 13 13 13 12 12 12 12 12 11
Wind_Direction
280 279 278 279 280 281 281 280 279 279 280 281 281 281 281 281 280 278 277 276 275 275 274 274 273 272 272 269 267 266 264 264 264 265 266 266 266 266 266 267 268 268 269 270
279 278 278 279 281 281 280 280 280 279 280 280 279 279 279 279 279 278 276 276 276 275 274 274 274 273 272 269 268 267 265 264 265 265 265 265 266 266 266 267 267 268 269 270
280 280 279 280 282 282 282 282 281 281 280 279 278 278 278 278 277 278 278 278 278 278 277 276 275 274 273 271 269 269 267 266 266 265 265 266 266 266 267 267 267 268 270 271
281 281 280 284 284 283 283 283 282 280 279 279 279 279 278 278 280 280 280 280 280 279 279 279 278 277 276 273 271 271 270 269 267 266 267 267 268 268 267 267 268 269 270 271
281 282 283 285 285 283 283 283 282 279 278 277 277 277 277 278 280 281 281 281 281 280 281 281 280 278 278 275 273 273 273 271 269 269 268 268 267 267 267 268 270 271 272 272
281 282 284 287 286 285 285 285 284 281 279 277 275 275 276 277 279 281 281 282 281 280 281 281 280 279 279 277 276 274 273 271 271 270 269 268 267 266 267 268 270 271 272 273
281 282 284 287 286 286 286 287 285 282 279 277 276 277 278 279 279 280 281 281 280 280 280 280 280 280 279 278 277 275 273 271 271 270 270 268 267 267 268 269 271 273 274 275
281 282 286 286 286 285 286 286 284 280 278 278 277 278 279 280 280 281 282 281 279 279 280 280 280 280 279 277 275 274 272 271 270 270 269 268 268 268 269 270 272 274 275 276
281 284 285 286 286 287 287 285 282 279 277 278 279 279 281 281 281 281 283 282 281 281 280 281 281 280 277 275 274 273 272 271 271 270 269 268 268 269 271 272 274 275 275 276
281 283 286 286 286 286 284 282 280 278 277 278 280 281 282 282 281 282 283 283 282 282 280 280 281 280 277 275 274 274 272 271 271 270 269 269 269 271 273 275 275 276 276 276
282 284 285 284 284 284 283 281 280 278 278 280 280 280 282 283 283 283 283 283 284 285 282 281 281 280 278 276 275 274 272 271 271 270 269 270 271 272 275 277 278 277 278 278
285 285 284 284 282 282 282 282 280 278 278 279 280 282 283 283 283 284 284 283 283 284 285 284 282 281 279 277 276 274 272 270 270 270 270 270 271 274 275 278 278 278 278 278
283 283 284 284 283 283 282 281 279 279 279 279 279 281 282 282 282 282 282 282 282 283 284 284 282 282 281 279 277 274 273 272 271 271 271 272 274 275 275 277 279 278 278 279
282 282 283 283 283 282 282 281 280 281 280 281 281 281 281 281 281 280 280 280 280 281 282 282 282 283 282 280 277 275 274 273 273 273 272 275 276 277 276 276 276 276 277 279
282 282 283 283 284 283 281 281 282 282 282 282 283 283 283 281 279 279 279 279 278 279 281 282 283 285 283 281 279 277 276 276 276 276 276 276 278 278 278 276 275 275 277 278
281 282 283 284 283 281 280 282 282 283 283 282 283 284 284 283 281 280 279 279 279 280 282 283 285 286 284 283 281 279 278 278 278 278 278 277 278 278 277 276 275 275 276 277
281 281 283 283 280 279 280 281 283 284 284 284 284 285 285 285 285 283 282 281 280 281 282 284 286 286 285 284 282 280 279 280 279 279 279 279 279 278 278 277 276 275 274 275
283 281 281 280 279 279 280 282 284 284 285 286 285 285 285 285 285 286 285 284 283 282 283 285 286 287 286 285 283 281 280 280 280 280 281 281 279 279 280 280 278 274 273 272
284 283 282 279 277 278 280 281 282 283 284 286 287 285 285 285 286 287 286 287 286 286 287 287 288 289 288 286 284 282 281 281 281 282 282 282 281 280 280 280 278 274 272 269
284 283 281 278 277 280 281 281 282 283 284 286 287 285 284 285 286 286 286 287 287 287 288 289 290 290 289 286 284 284 284 282 281 281 282 283 282 280 279 278 275 273 271 268
282 282 281 278 279 280 280 281 282 284 285 287 286 285 284 284 286 286 286 286 286 287 288 288 288 287 287 285 283 283 284 284 282 280 280 281 281 280 279 277 274 271 268 266
282 282 281 279 278 279 281 282 284 285 287 286 285 285 285 284 284 284 284 284 286 288 289 289 289 287 286 287 286 283 282 282 280 280 280 280 281 279 277 276 274 271 268 266
282 282 281 280 280 281 283 285 286 287 287 285 284 284 284 285 284 283 282 284 286 288 288 289 288 287 287 288 288 285 281 280 280 280 281 281 279 277 276 274 272 272 270 266
282 281 282 282 283 285 287 289 290 289 287 283 283 283 284 285 285 285 284 284 285 287 289 289 288 288 288 289 288 284 282 280 280 280 280 279 278 276 275 273 272 272 270 268
281 283 284 284 284 287 290 292 292 290 287 284 284 285 285 285 285 286 286 286 286 286 288 288 288 287 288 288 287 284 281 279 279 278 278 277 276 275 274 273 272 272 269 267
285 286 286 286 286 288 290 291 290 288 285 286 287 289 288 288 288 288 288 288 289 289 288 289 289 289 288 287 285 283 280 277 275 275 277 277 276 275 273 273 273 271 269 266
286 286 286 286 286 287 288 289 288 286 286 287 288 289 290 291 291 293 293 291 291 291 291 289 289 289 289 287 284 280 277 273 271 272 273 274 274 272 271 272 271 270 267 266